User: anonymous   Login
Location: Bandys
(35.4750°N, 81.0830°W)
Time: 17:08:42
(UTC-04:00)
Language:

DELTA 2 R/B (1) - Orbit

View from above orbital plane
View from above orbital plane
View from above satellite
View from above satellite

Ground track
Ground track

The orbit data is extracted from the following two-line orbital elements,

1 27665U 03005C   17295.18413486  .00000068  00000-0  60463-4 0  9990
2 27665  39.5751 183.6146 0007887   6.3580 130.4394 14.28457386769092
Epoch (UTC): 22 October 2017 04:25:09
Eccentricity: 0.0007887
inclination: 39.5751°
perigee height: 791 km
apogee height: 802 km
right ascension of ascending node: 183.6146°
argument of perigee: 6.3580°
revolutions per day: 14.28457386
mean anomaly at epoch: 130.4394°
orbit number at epoch: 76909

The dashed part of the orbit path shows where the satellite is in the earth's shadow,  

DLR